Results - NCAA D1 South Central Regional 2023

Results, start lists and live scores for the 2023 NCAA South Central Cross Country Regional Championships.

Event Date: Friday, November 10

Location: Agri Park | Fayetteville, Arkansas

RESULTS WOMEN 6KM

POSNAMETIMEPts
1Sydney THORVALDSON Arkansas [SO]19:52.01
2Mia COCHRAN Arkansas [SO]20:14.8 +232
3Matro JEPKEMBOI UT-Arlington [FR]20:15.8 +243
4Ella CHESNUT LSU [SO]20:18.4 +274
5Rahel BROEMMEL Arkansas State [FR]20:20.7 +295
6Mary Ellen EUDALY Arkansas [SO]20:22.5 +316
7Beth RAMOS Texas [SR]20:29.1 +387
8Gracie MORRIS Texas Christian [JR]20:33.7 +428
9Madison BROWN Texas A&M [SR]20:40.2 +499
10Laura TABORDA Arkansas [SR]20:42.3 +5110
11Maddie LIVINGSTON Texas A&M [JR]20:51.5 +1:0011
12Leoni MIERSWA SMU [JR]20:53.2 +1:0212
13Julia Anna LILY BELL Tulane [SO]20:53.7 +1:0213
14Kennady FONTENOT Texas A&M [SO]20:54.5 +1:0314
15Gemma REBOLLO Tulane [JR]20:58.2 +1:0715
16Danna DIAZ Tulane [JR]20:59.5 +1:0816
17Nyah HERNANDEZ Arkansas [JR]21:03.6 +1:1217
18Michaela ROSE LSU [SO]21:03.7 +1:1218
19Elizabeth PICKETT Texas [SO]21:03.8 +1:1219
20Heidi NIELSON Arkansas [SO]21:04.1 +1:1320
21Arlette CONCEPCION Houston Christian [JR]21:04.2 +1:13 
22Ashlyn ROYAL Incarnate Word [JR]21:04.6 +1:13 
23Mackenzie ROGERS Arkansas [SO]21:04.8 +1:1321
24Claire MEYER Houston [SR]21:07.3 +1:16 
25Eva JESS Texas [JR]21:11.0 +1:1922
26Taigen HUNTER-GALVAN Rice [SR]21:22.1 +1:3123
27Lorena RANGEL BATRES LSU [JR]21:22.1 +1:3124
28Kaitlyn GEARIN SMU [JR]21:23.4 +1:3225
29Jaybe SHUFELBERGER Arkansas State [SR]21:23.5 +1:3226
30Shewaye JOHNSON Texas A&M [FR]21:23.6 +1:3227
31Cara INCH Lamar [JR]21:26.2 +1:3528
32Emma LITTLE Texas A&M [SO]21:29.5 +1:3829
33Mercy BIWOTT UT-Arlington [JR]21:31.4 +1:4030
34Kendall SAEGER SMU [JR]21:35.2 +1:4431
35Maddie HULCY SMU [SR]21:39.8 +1:4832
36Madeline HILL Central Arkansas [JR]21:40.9 +1:4933
37Elizabeth MARTIN Arkansas State [SR]21:41.2 +1:5034
38Alexandra WEIR New Orleans [SR]21:42.0 +1:5035
39Amelie ATTENBOROUGH Rice [SO]21:47.3 +1:5636
40Tshwanelo MARUPING New Orleans [SR]21:48.4 +1:5737
41Winnie KIPSANG UT-Arlington [FR]21:49.7 +1:5838
42Callie HARDY LSU [JR]21:50.0 +1:5839
43London CULBREATH Texas Christian [SO]21:50.3 +1:5940
44Tabitha KALUNDE NGAO Texas Christian [FR]21:51.2 +2:0041
45Sophia MCNERNEY Tulane [SO]21:52.7 +2:0142
46Flora TISSIER SMU [JR]21:53.5 +2:0243
47Sophie MARTIN LSU [JR]21:56.6 +2:0544
48Faustine CHABOCHE SMU [FR]21:59.0 +2:0745
49Maddie HATFIELD Texas [JR]21:59.8 +2:0846
50Mary Beth BAILEY Arkansas State [JR]22:02.9 +2:1147
51Nia CLATWORTHY Lamar [SO]22:04.1 +2:1348
52Haley HARPER Texas [FR]22:04.6 +2:1349
53Allyson LITTLE Texas [JR]22:06.0 +2:1450
54Kimone CAMPBELL ULM [SR]22:06.3 +2:1551
55Trinity TROTTER North Texas [FR]22:06.4 +2:1552
56Paula VAQUERA Tulane [SO]22:06.7 +2:1553
57Olivia WALTER Arkansas State [SO]22:06.9 +2:1554
58Katelyn BUCKLEY Texas A&M [JR]22:08.8 +2:1755
59Emma HOURICAN Rice [FR]22:09.2 +2:1856
60Tereza LUKASOVA Stephen F. Austin [JR]22:09.7 +2:1857
61Alexia MACIAS Texas State [FR]22:14.0 +2:22 
62Maddy LUSCOMBE Tulane [FR]22:15.5 +2:2458
63Lauren WALLS-PORTILLO UT-Arlington [SO]22:15.6 +2:2459
64Melody ESPINOZA UTSA [FR]22:15.8 +2:24 
65Marcie CUDWORTH Little Rock [JR]22:16.0 +2:2460
66Abigail PARRA Texas State [SO]22:16.2 +2:25 
67Jeny BARCENAS McNeese State [SO]22:19.6 +2:2861
68Montana MONK LSU [SO]22:19.8 +2:2862
69Samantha GONZALEZ UT-Rio Grande Valley [JR]22:20.1 +2:2963
70Rachel TAYLOR Stephen F. Austin [SR]22:22.6 +2:3164
71Peyton MCQUILLAN Texas Christian [SR]22:23.6 +2:3265
72Alisa MERAZ-FISHBEIN Rice [JR]22:26.3 +2:3566
73Felisa SAHEIB Central Arkansas [JR]22:27.3 +2:3667
74Emma BOURG New Orleans [FR]22:27.7 +2:3668
75Olivia ANDREWS Texas Christian [FR]22:29.5 +2:3869
76Grace SULLIVAN McNeese State [JR]22:29.8 +2:3870
77Maggie MARSHALL Stephen F. Austin [SR]22:30.0 +2:3871
78Aditi SILWAL North Texas [FR]22:30.4 +2:3972
79Sophia WOLF New Orleans [JR]22:31.0 +2:3973
80Marissa ESPINOZA UTSA [FR]22:31.5 +2:40 
81Katelyn COLDICOTT Abilene Christian [JR]22:33.5 +2:4274
82Annabel HOBDAY Lamar [JR]22:34.2 +2:4375
83Jackie ADDY Baylor [JR]22:35.4 +2:44 
84Cadence LAPP Arkansas State [SO]22:36.6 +2:4576
85Sharon KIPROP Texas A&M-CC [SR]22:37.1 +2:4677
86Cici CALHOUN Rice [FR]22:37.7 +2:4678
87Eliana BATTLE ULM [JR]22:38.6 +2:4779
88Sorcha MOLONEY McNeese State [SR]22:39.0 +2:4780
89Ashton RAINEY Lamar [FR]22:39.6 +2:4881
90Destiny QUINTANILLA Houston Christian [SO]22:41.0 +2:49 
91Macey HILTON SMU [SO]22:43.1 +2:5282
92Zosia BULHAK Houston [JR]22:43.5 +2:52 
93Ella SEGURA Louisiana [FR]22:44.2 +2:5383
94Ali NACHTIGAL Central Arkansas [JR]22:45.3 +2:5484
95Claire COMPHER UT-Arlington [JR]22:48.4 +2:5785
96Mackenize BROWNE Texas [FR]22:50.1 +2:5986
97Hayden GOLD Baylor [JR]22:50.1 +2:59 
98Ellie GALAN Sam Houston [JR]22:51.3 +3:0087
99Oxana BONJORN-GIROS New Orleans [SO]22:53.0 +3:0188
100Eleni KAISER Houston [JR]22:54.3 +3:03 
101Mariana MARTINEZ Texas Christian [SR]22:54.5 +3:0389
102Amanda HOGAN Texas A&M [FR]22:55.2 +3:0490
103Gabby MARTIN Texas Christian [SO]22:55.5 +3:0491
104Rosanna PUGH Baylor [FR]22:55.6 +3:04 
105Kyla LOCHTEFELD Little Rock [SO]22:55.9 +3:0492
106Kate BROCKMAN Texas A&M-CC [JR]22:56.1 +3:0593
107Sequoya PRENTICE Central Arkansas [SO]22:56.7 +3:0594
108Marta PASCOA McNeese State [JR]22:57.4 +3:0695
109Addison STEVENSON LSU [JR]22:59.7 +3:0896
110Faith RAMOS Texas A&M-CC [FR]23:00.9 +3:0997
111Danielle SALINAS Incarnate Word [SO]23:00.9 +3:09 
112Miranda VREELAND North Texas [JR]23:01.0 +3:0998
113Ansley LONG ULM [JR]23:01.3 +3:1099
114Tiblets ABREHA North Texas [SO]23:01.5 +3:10100
115Katlyn SCHMELTZER Rice [JR]23:07.4 +3:16101
116Hadley WATTS Stephen F. Austin [SO]23:07.9 +3:16102
117Brooke VELTMAN UTSA [JR]23:08.4 +3:17 
118Peyton BORNSTEIN Abilene Christian [SO]23:09.9 +3:18103
119Kassidy BESSON Nicholls State [FR]23:11.4 +3:20104
120Jewel BAER Central Arkansas [JR]23:14.0 +3:22105
121Panagiota LAZAROU Little Rock [JR]23:16.2 +3:25106
122Isabel BORREGO UT-Arlington [SR]23:17.5 +3:26107
123Isabella EVANS Abilene Christian [SO]23:18.2 +3:27108
124Maggie HUNTER Arkansas State [SO]23:18.5 +3:27109
125Ana HERNANDEZ UT-Rio Grande Valley [SR]23:18.8 +3:27110
126Kate WILLIAMS Abilene Christian [SO]23:19.6 +3:28111
127Trude LAMB Stephen F. Austin [FR]23:21.0 +3:30112
128Faith CRUZ UT-Rio Grande Valley [SO]23:21.4 +3:30113
129Brooke SPALITTA Louisiana [SO]23:22.1 +3:31114
130Mykayla MIMS Lamar [JR]23:23.2 +3:32115
131Isabelle RUSSELL Louisiana [FR]23:23.7 +3:32116
132Irene BARREIRO-LOPEZ McNeese State [JR]23:24.1 +3:33117
133Erin RIVERA Houston [JR]23:24.6 +3:33 
134Juliana COURVILLE Louisiana [FR]23:25.5 +3:34118
135Kennedie RHEIN Little Rock [FR]23:25.8 +3:34119
136Haley SALSBURY Louisiana [SR]23:28.1 +3:37120
137Jadelyn MALESICH UTSA [FR]23:28.8 +3:37 
138Ciara GILROY McNeese State [SR]23:33.3 +3:42121
139Emma SELPH Central Arkansas [JR]23:34.1 +3:43122
140Allyson MCCUTCHEON Stephen F. Austin [SR]23:34.3 +3:43123
141Anna NAFF ULM [SO]23:34.5 +3:43124
142Tessa HOLDERMAN Abilene Christian [SO]23:40.5 +3:49125
143Kimberly GLORIA Texas State [FR]23:43.5 +3:52 
144Riley COWAN Texas A&M-CC [SR]23:45.7 +3:54126
145Kailey SALAZAR UT-Rio Grande Valley [FR]23:45.8 +3:54127
146Autumn SMITH Abilene Christian [FR]23:47.1 +3:56128
147Agnes DANNER New Orleans [FR]23:47.3 +3:56129
148Addison SYKORA North Texas [FR]23:48.4 +3:57130
149Khylee PHILIPS Lamar [FR]23:48.5 +3:57131
150Issy RIVAULT Nicholls State [FR]23:51.3 +4:00132
151Sohalia SCHOEN ULM [JR]24:00.4 +4:09133
152Estrella MEDELLIN UT-Rio Grande Valley [SR]24:01.4 +4:10134
153Rachael HARTLY UT-Arlington [SO]24:04.1 +4:13135
154Brooke WALKER Little Rock [SO]24:06.5 +4:15136
155Caroline SPALITTA Louisiana [SO]24:10.7 +4:19137
156Maria NIKOLAOU Nicholls State [FR]24:14.7 +4:23138
157Kristen WILSON Sam Houston [JR]24:19.3 +4:28139
158Elena FARINHOLT Houston Christian [SO]24:20.5 +4:29 
159Skylar DELGADO Louisiana [SO]24:21.3 +4:30140
160Sophia HARRISON Nicholls State [JR]24:21.5 +4:30141
161Jasmine PEREZ McNeese State [SR]24:31.1 +4:40142
162Chloe GARCIA GRAFING Texas A&M-CC [JR]24:35.4 +4:44143
163Deandra IBARRA Texas A&M-CC [SO]24:42.8 +4:51144
164Zerah MARTINEZ Sam Houston [FR]24:43.7 +4:52145
165Kate HANSEN Abilene Christian [SO]24:51.6 +5:00146
166Selissa GONZALES UT-Rio Grande Valley [SO]24:51.6 +5:00147
167Naomi GREEN Sam Houston [FR]24:57.6 +5:06148
168Amy PRITCHARD North Texas [JR]25:05.8 +5:14149
169Lili GRANT Tulane [SO]25:09.7 +5:18150
170Jalynn LOZANO ULM [JR]25:12.4 +5:21151
171Kyndall SCOGIN Sam Houston [FR]25:16.4 +5:25152
172Mackenzie HENDRIX Little Rock [SO]25:18.0 +5:26153
173Lauren JOHANSSON Sam Houston [SO]25:24.2 +5:33154
174Marisa JACOBER North Texas [SO]25:33.6 +5:42155
175Didi GARCIA Incarnate Word [FR]25:34.6 +5:43 
176Annie KING Stephen F. Austin [SR]25:50.5 +5:59156
177Kalin BARATKA Nicholls State [JR]25:59.6 +6:08157
178Desiree GUERRA UT-Rio Grande Valley [SR]26:03.1 +6:12158
179Isabelle SEIJLHOUWER Nicholls State [FR]26:25.2 +6:34159
180Avery GUIDRY Nicholls State [FR]26:46.7 +6:55160
DNFRebecca DEKAY New Orleans [SR]  
DNFSara STEIMEL Central Arkansas [SR]  
DNFNatalee BERGERON Lamar [JR]  
DNSMacy TURCOTTE Tulane [JR]  
DNSMckenzie BAILEY Texas Christian [FR]  
DNSBrighton MOONEY Texas [SO]  
DNSAishling CALLANAN Texas [FR]  
DNSHadley PHILLIPS Abilene Christian [FR]  
DNSAmity EBARB Texas [JR]  
DNSNicole CHASTAIN Texas A&M [JR]  
DNSAlex SHARP Tulane [SO]  
DNSGwyneth HUGHES LSU [SR]  
DNSEline MAST Houston Christian [SO]  
DNSEllisyn DAVIS Houston Christian [JR]  
DNSSutton WALSH Rice [FR]  
DNSNour ALMASRI Sam Houston [SO]  
DNSKelsie VICKNAIR Texas [JR]  
DNSAlyssa PENA Incarnate Word [SO]  
DNSAndrea ACUNA Incarnate Word [JR]  
DNSNikoleta RAFAILAKI SMU [SO]  
DNSLayla INGALLS Nicholls State [JR]  
DNSTiana LOSTRACCO Arkansas [JR]  
DNSJazlynn ESTRADA Houston Christian [FR]  
DNSMegan AARON SMU [SR]  
DNSAva WHITE Rice [SO]  
DNSBrooke FORBES Texas A&M [SO]  
DNSDaniela WISNIEWSKI Texas State [JR]  
DNSAlex GOBRAN Rice [FR]  
DNSAdele BROUSSARD LSU [SR]  
DNSBonnie ANDRES McNeese State [SR]  
DNSReese RAGLAND Tulane [SO]  
DNSAvery PERKINS Texas A&M [FR]  
DNSShanya LUNA Texas [SR]  
DNSOlivia HOWELL Texas [SR]  
DNSSophey POPE Arkansas State [SO]  
DNSJessie CROWLEY SMU [JR]  
DNSPaityn NOE Arkansas [FR]  
DNSAlanis ROBINEAU SMU [SR]  
DNSKatarzyna KWIATKOWSKI Texas [SO]  
DNSKassandra JIMENEZ UT-Arlington [FR]  
DNSEllie SCHWEIKER Rice [JR]  

MEN'S TEAM SCORE

POSTEAMPts
1Texas34
2Arkansas52
3Tulane77
4Arkansas State157
5Incarnate Word157
6Texas A&M178
7Rice187
8Sam Houston276
9UT-Arlington292
10Little Rock302
11Houston312
12North Texas316
13Texas Christian345
14New Orleans351
15Abilene Christian399
16ULM432
17Central Arkansas439
18Texas A&M-CC474
19McNeese State495
20Baylor522
21Stephen F. Austin529
22Texas State554
23UT-Rio Grande Valley587
24Louisiana644
25Nicholls State776
 UTSANTS
 LamarNTS
 Houston ChristianNTS
 SE LouisianaNTS

RESULTS MEN 10KM

POSNAMETIMEPts
1Patrick KIPROP Arkansas [JR]28:38.81
2Kirami YEGO Arkansas [JR]28:43.0 +42
3Devin HART Texas [SR]28:44.6 +63
4Rodger RIVERA Texas [JR]28:59.5 +214
5Isaac ALONZO Texas [JR]29:18.7 +405
6Bradley MAKUVIRE Tulane [SR]29:25.1 +476
7Jack JENNINGS Tulane [JR]29:27.1 +497
8Eric CASAREZ Texas A&M [SR]29:29.4 +518
9Haftu KNIGHT Texas [SR]29:39.0 +1:019
10Victor NEIVA North Texas [JR]29:41.7 +1:0310
11Illia KUNIN Tulane [JR]29:44.6 +1:0611
12Dennis KIPNGENO Texas A&M-CC [SR]29:50.5 +1:1212
13Nathanael BERHANE Texas [SO]29:50.8 +1:1213
14Lexington HILTON Arkansas [JR]30:02.4 +1:2414
15Jacob MCLEOD Arkansas [SR]30:05.4 +1:2715
16Dawson MAYBERRY Arkansas State [JR]30:05.5 +1:2716
17Abraham AVILA-MARTINEZ Texas [JR]30:12.4 +1:3417
18Jonathan CHUNG Texas A&M [JR]30:15.8 +1:3718
19Christian RIVERA Sam Houston [JR]30:18.6 +1:4019
20Tommy ROMANOW Arkansas [JR]30:19.8 +1:4120
21Griffin NEAL Incarnate Word [JR]30:22.0 +1:4321
22Jacob PYEATT Arkansas State [JR]30:23.7 +1:4522
23Gudisa ADNOW Sam Houston [JR]30:25.1 +1:4723
24Christopher DANIELS Incarnate Word [JR]30:26.3 +1:4824
25Gus GANNON Rice [FR]30:27.4 +1:4925
26Ryan ADKINS Tulane [JR]30:28.4 +1:5026
27Alan DEOGRACIAS Tulane [SR]30:29.7 +1:5127
28Kevin CASTRUITA Abilene Christian [JR]30:36.2 +1:5828
29Travis DOWD Rice [SR]30:38.2 +2:0029
30Freddy RICHARDSON Lamar [JR]30:41.6 +2:03 
31Jack JOHNSTON Texas A&M [FR]30:42.9 +2:0430
32Cash KUNKEL Arkansas State [SR]30:44.9 +2:0631
33Eric PINEDA Incarnate Word [SO]30:45.2 +2:0732
34Patrick ESTES UT-Arlington [SR]30:45.8 +2:0733
35Alexandre FETIZON Incarnate Word [JR]30:46.2 +2:0834
36Henry COUGHLAN Texas [SO]30:46.3 +2:0835
37Colton STUNKARD UTSA [JR]30:52.9 +2:14 
38Rylan BROWN Arkansas State [JR]31:01.6 +2:2336
39Graydon MORRIS Texas Christian [SO]31:02.6 +2:2437
40Jack WILLIAMS Arkansas [SO]31:02.9 +2:2438
41Spencer CARDINAL Little Rock [JR]31:03.4 +2:2539
42Berry COX Houston [SR]31:03.5 +2:2540
43Ben TIJERINA Rice [FR]31:03.6 +2:2541
44Matthew HANSEN New Orleans [FR]31:04.5 +2:2642
45Grant SAMARA Rice [SO]31:04.8 +2:2643
46Rogelio AGUIRRE UT-Arlington [SO]31:05.6 +2:2744
47Enock KIMUTAI Texas A&M-CC [SR]31:06.8 +2:2845
48Ryan GARZA Incarnate Word [SR]31:06.8 +2:2846
49Pete JOHNSON Central Arkansas [JR]31:07.6 +2:2947
50Ryan HODGE Baylor [SR]31:09.2 +2:3148
51Elliot METCALF Rice [JR]31:12.5 +2:3449
52Joseph BENN Texas A&M [JR]31:16.1 +2:3850
53Zach MCPHEE Little Rock [JR]31:20.5 +2:4251
54Natnael ENRIGHT Arkansas State [SO]31:21.9 +2:4352
55Brandon SEAGREAVES Houston [SR]31:23.3 +2:4553
56Jack DINGMAN Central Arkansas [SO]31:27.5 +2:4954
57Andrew PAYTON Little Rock [JR]31:29.4 +2:5155
58Stone BURKE Texas Christian [JR]31:31.8 +2:5356
59Nick NEWBY Little Rock [JR]31:32.4 +2:5457
60Caden CUNNINGHAM UTSA [JR]31:32.8 +2:54 
61Evan PARDO New Orleans [JR]31:34.4 +2:5658
62Carlo MARTINEZ-JARAMILLO ULM [FR]31:34.9 +2:5659
63Christopher MEYER Texas Christian [FR]31:35.2 +2:5760
64Cade LITOLFF New Orleans [SR]31:36.6 +2:5861
65Gilbert KIMUTAI McNeese State [JR]31:38.5 +3:0062
66Brian GUEVARA UT-Arlington [SO]31:39.7 +3:0163
67Miles COX Houston [SO]31:40.0 +3:0164
68Justice ARTISST Houston Christian [SR]31:40.3 +3:02 
69Ethan MALESICH Incarnate Word [FR]31:43.9 +3:0565
70Mario RUIZ Sam Houston [SO]31:45.0 +3:0766
71Brycen PITRE Houston [SR]31:48.0 +3:1067
72Alan PROENZA North Texas [FR]31:48.3 +3:1068
73Peyton CHIASSON Louisiana [JR]31:48.7 +3:1069
74Rolando ORTIZ McNeese State [JR]31:49.1 +3:1170
75Will MCDERMOTT Rice [SO]31:49.4 +3:1171
76Siddharth JAYARAMAN Texas A&M [JR]31:53.3 +3:1572
77Wyatt HOOVER Stephen F. Austin [SO]31:55.4 +3:1773
78Josue GRANADOS UT-Arlington [SO]31:55.5 +3:1774
79Juwan BLIGNAUT ULM [JR]31:56.5 +3:1875
80Davis THAMES Rice [JR]31:57.4 +3:1976
81Jake MEYERING North Texas [FR]31:59.6 +3:2177
82Jackson CICHON UT-Arlington [JR]32:01.0 +3:2378
83Mason GARNER North Texas [SR]32:04.5 +3:2679
84Jimmy MANN Arkansas State [FR]32:06.4 +3:2880
85Wyatt LEHMANN Sam Houston [SO]32:07.6 +3:2981
86Luke CANON North Texas [JR]32:10.2 +3:3282
87Noah WINTERS Texas Christian [JR]32:10.9 +3:3283
88Gabe EMBREE Abilene Christian [SR]32:12.4 +3:3484
89Margarito BENAVIDES Incarnate Word [SO]32:12.5 +3:3485
90Jonathon HRIVANK Texas State [SR]32:14.5 +3:3686
91Euan LAGAN SE Louisiana [JR]32:14.6 +3:36 
92Kyan WALLACE Sam Houston [JR]32:20.8 +3:4287
93Michael ARCHIE Houston [FR]32:22.5 +3:4488
94O'Brien VERDIN Abilene Christian [JR]32:24.2 +3:4689
95Jacob KIPKOGEI McNeese State [SR]32:25.3 +3:4790
96Devin DURAN Baylor [JR]32:25.7 +3:4791
97Mikhail FORTNER Abilene Christian [FR]32:27.0 +3:4892
98Brayden ORTIZ ULM [JR]32:30.7 +3:5293
99Alex SOILEAU New Orleans [SR]32:31.1 +3:5394
100Nathaniel MORALES Texas State [FR]32:34.4 +3:5695
101Baptiste DEPRIL-DUPRE New Orleans [SR]32:35.4 +3:5796
102Hardy SWANN North Texas [FR]32:36.4 +3:5897
103Juan GIRON Tulane [FR]32:36.6 +3:5898
104Thomas CAIN Central Arkansas [SR]32:38.2 +4:0099
105Aaron SOLTMANN Little Rock [JR]32:38.9 +4:00100
106Marcos MUNOZ UT-Rio Grande Valley [SR]32:41.0 +4:02101
107Teddy GOWEN ULM [JR]32:46.9 +4:08102
108Rojs PUKS ULM [SR]32:47.2 +4:09103
109Andres GURROLA UT-Arlington [FR]32:47.3 +4:09104
110Ricardo GARCIA UT-Rio Grande Valley [SR]32:47.9 +4:09105
111Samuel LANHAM Abilene Christian [SO]32:48.7 +4:10106
112Carlos HERNANDEZ Central Arkansas [SO]32:51.8 +4:13107
113Anthony PARRA Stephen F. Austin [SO]32:52.0 +4:14108
114Finn RILEY Texas Christian [JR]32:54.9 +4:16109
115Sam MARTINEZ Stephen F. Austin [SR]32:55.3 +4:17110
116Patrick FLOWERS Houston [FR]32:55.5 +4:17111
117Shane FISHER Little Rock [FR]32:56.6 +4:18112
118Straton MILLER Baylor [FR]32:58.8 +4:20113
119Josh BEAM Little Rock [JR]32:59.2 +4:21114
120Chase GUNN ULM [FR]33:00.1 +4:22115
121Arturs LAPINS Tulane [SO]33:01.6 +4:23116
122Kevin CURRY IV Stephen F. Austin [FR]33:03.2 +4:25117
123Mason HALEY Louisiana [SO]33:05.7 +4:27118
124Abraham MORALES UT-Rio Grande Valley [SO]33:06.7 +4:28119
125Zachary MARTIN Abilene Christian [FR]33:07.6 +4:29120
126Bennett MEYER-WILLS Stephen F. Austin [SO]33:07.9 +4:29121
127Landon BLANKENSHIP UTSA [SO]33:09.6 +4:31 
128Anthony SANDAVOL Texas State [FR]33:13.7 +4:35122
129Aiden RAMSHAW Baylor [FR]33:15.0 +4:36123
130Aiden GONZALEZ-RODILES Texas A&M [FR]33:15.7 +4:37124
131Jack DEELMAN Texas State [FR]33:17.6 +4:39125
132Ismael HERNANDEZ Texas State [SO]33:17.7 +4:39126
133Cooper CAWTHRA Texas A&M [SO]33:19.2 +4:41127
134Manuel FLORES UT-Rio Grande Valley [FR]33:20.8 +4:42128
135Kevin KIMAIYO McNeese State [FR]33:22.5 +4:44129
136Gary SANDROCK New Orleans [JR]33:25.7 +4:47130
137Hunter HAAS Texas A&M-CC [SR]33:25.8 +4:47131
138Ky BICKFORD Central Arkansas [FR]33:31.6 +4:53132
139Kelvin CHIKU New Orleans [JR]33:32.9 +4:54133
140Alex CANALES UT-Rio Grande Valley [JR]33:33.9 +4:55134
141Jake JOHNSON North Texas [FR]33:34.2 +4:56135
142Edwin RIVERA Sam Houston [FR]33:35.2 +4:57136
143Beau MELANCON Central Arkansas [JR]33:39.3 +5:01137
144Jacob YE UT-Arlington [JR]33:39.4 +5:01138
145Devon JUDELSON Stephen F. Austin [FR]33:39.7 +5:01139
146Roy GOMEZ Texas A&M-CC [JR]33:43.7 +5:05140
147Samuel AVANTS Louisiana [SR]33:44.4 +5:06141
148Derek WAITE Houston [FR]33:47.1 +5:09142
149Adrian OROZCO UTSA [FR]33:52.4 +5:14 
150Mario CANTARERO UT-Rio Grande Valley [FR]33:52.9 +5:14143
151Alex MARTIN McNeese State [FR]33:55.0 +5:16144
152Garrison SHINDLER Abilene Christian [SO]33:57.1 +5:19145
153Logan RICKEY Texas A&M-CC [JR]34:01.7 +5:23146
154Nolan KEENAN Baylor [FR]34:02.7 +5:24147
155Goran DUIJSTERS Nicholls State [JR]34:06.4 +5:28148
156Gabriel DE LA O Stephen F. Austin [FR]34:08.2 +5:30149
157Noah MCMURTREY Arkansas State [SO]34:09.4 +5:31150
158Gavin FRICK Central Arkansas [JR]34:34.0 +5:55151
159Kevin CARDENAS UT-Rio Grande Valley [FR]34:38.1 +6:00152
160Chase WALKER Nicholls State [SO]34:42.0 +6:03153
161Owen TAUZIN Louisiana [FR]34:49.5 +6:11154
162Yovany PORTILLO Sam Houston [SO]34:53.2 +6:15155
163Lucas FUTEY Nicholls State [JR]35:02.0 +6:23156
164Kanalu WONG Baylor [FR]35:08.7 +6:30157
165Avery MORGAN Nicholls State [FR]35:13.0 +6:34158
166Gregorio ALCORTA Texas A&M-CC [JR]35:13.5 +6:35159
167Caleb ACKMAN Baylor [SO]35:13.8 +6:35160
168Thomas SAUNDERS Nicholls State [SO]35:24.1 +6:46161
169Caedmon KYLES Louisiana [SR]36:00.6 +7:22162
170Sullivan HANNA McNeese State [FR]36:06.2 +7:28163
171William NIZZO Nicholls State [FR]36:10.2 +7:32164
172William BELLINA Nicholls State [SO]36:59.3 +8:21165
DNFEmmanuel SGOUROS Texas [SO]  
DNFLouden BOUDREAUX Louisiana [SO]  
DNFMathayo BUNDOTICH Texas A&M-CC [FR]  
DNFJohn Walker MCDONALD Louisiana [SO]  
DNFOmer EL-FADL McNeese State [JR]  
DNSJake FABACHER Nicholls State [JR]  
DNSKelvin KIMAIYO Texas A&M-CC [JR]  
DNSAce GARCIA Sam Houston [SO]  
DNSJosh SHEARER Arkansas [SR]  
DNSDustin WAGER Nicholls State [JR]  
DNSJacob FREEMAN UT-Arlington [FR]  
DNSMyles RICHTER Arkansas [SR]  
DNSHudson HEIKKINEN Texas [SO]  
DNSAlex HARTLINE Nicholls State [FR]  
DNSJaxon ARTISST Houston Christian [FR]  
DNSJacob ZIMMERMAN Sam Houston [SO]  
DNSAbderahman BENFODDA Houston Christian [FR]  
DNSAaron CRITTENDEN Houston [FR]  
DNSColby KURTZ Houston Christian [FR]  
DNSAiden KIRKPATRICK North Texas [FR]  
DNSNigusom KNIGHT Texas [JR]  
DNSAndrew MURRAY Rice [JR]  
DNSIsaiah PRICE Houston Christian [SR]  
DNSMaximus PALACIOS Texas State [FR]  
DNSHudson BENNETT Texas [FR]  
DNSLuke GEORGE Arkansas [SR]  
DNSKoket JIMATA Texas State [JR]  
DNSReuben REINA Arkansas [SO]  
DNSKrzysztof TURSKI Houston Christian [JR]  
DNSBen SHEARER Arkansas [SO]  
DNSJackson BRADDOCK Texas [SO]  
DNSJacob RUSSELL Abilene Christian [SO]  
DNSJackson MORAN Rice [SO]  
DNSLogan PATETE Texas [JR]  
DNSHunter JACKSON Texas A&M [FR]  
DNSBrandon WILK UT-Arlington [SO]  
DNSWesley O'NEAL Nicholls State [SR]  
DNSElias SCHREML Arkansas [JR]  
DNSZack MUNGER Texas A&M [FR]  
DNSWesley WRIGHT Rice [JR]  
DNSDaniel COHEN Rice [SR]  
DNSPatrick ALLEMAN Nicholls State [SO]  
DNSDiego DE LEON UT-Rio Grande Valley [FR]  
DNSJett MONTES Incarnate Word [JR]  
DNSZach DENNISON Stephen F. Austin [SO]  
DNSDorian MAYORGA HOLLOWAY Texas A&M-CC [FR]  
DNSAndrew SNYDER Baylor [JR]  
DNSNoah WILLOWS Texas A&M [FR]  
DNSSamuel BASS Texas [JR]  
DNSBresner AUSTIN Central Arkansas [SO]  
DNSGrant MARTINEZ Texas Christian [FR]  
DNSAndrew MULLEN Stephen F. Austin [FR]  
DNSFilippo ALDROVANDI-REINA Rice [FR]  

 

Latest News
©2024 WATCHATHLETICS.COM. All rights reserved.